Location: Bothwell
(42.3833°S, 147.0000°E)
Time: 07:10:02
(UTC+10:00)

X-37B - Visible Passes

Search period start: 27 June 2022 00:00
Search period end: 07 July 2022 00:00
Orbit: 326 x 345 km, 45.0° (Epoch: 25 June)

Date Brightness Start Highest point End Pass type
(mag) Time Alt. Az. Time Alt. Az. Time Alt. Az.
03 Jul 3.4 06:21:55 10° N 06:23:57 17° NE 06:25:59 10° E visible
04 Jul 1.8 06:41:19 10° NW 06:44:06 39° NNE 06:46:55 10° E visible
05 Jul 3.1 05:28:57 17° NNE 05:29:14 17° NE 05:31:16 10° ENE visible
05 Jul 0.4 07:01:27 10° WNW 07:04:24 85° NNE 07:07:24 10° ESE visible
06 Jul 1.5 05:49:03 37° N 05:49:23 38° NNE 05:52:12 10° E visible
